Powrót do katalogu

STARLINK-32699

AktywnyŁącznośćVLEO
NORAD 62482·PAYLOAD·🇺🇸 United States

Wystrzelony Dec 31, 2024 z Cape Canaveral Space Force Station

Loading…

Następne Przeloty (najbliższe 24 godziny)

TLE

ŚwieżeSource: CelesTrak SupGP

Epoka: Sep 14, 2026, 21:23 UTC

1 62482C 24254W   26257.89145833  .00047015  00000+0  17026-2 0  2573
2 62482  43.0045  31.0720 0001676 272.6641  21.6772 15.27559971    18

Śledź STARLINK-32699 w czasie rzeczywistym z AllMySat

Download on the App Store